Location: *
(49.5667°N, 1.3667°W)
Time: 19:58:56
(UTC+00:00)

Terra - Pass Details

Date: 20 September 2019
Orbit: 701 x 703 km, 98.2° (Epoch: 22 October)

Event Time Altitude Azimuth Distance (km) Brightness Sun altitude
Exits shadow 21:33:11 33° 10° (N) 1,193 3.2 -30.6°
Drops below altitude 10° 21:35:55 10° 354° (N) 2,183 5.0 -30.9°
Sets 21:38:13 0° 350° (N) 3,106 5.9 -31.2°
